Weather History for Rensselaer, IN

Change the Weather History Date:

Wednesday, November 21, 2012

  Actual Average (KVPZ) Record (KVPZ)
Temperature  
Mean Temperature 46 °F 38 °F  
Max Temperature 59 °F 46 °F 62 °F (2010)
Min Temperature 33 °F 31 °F 11 °F (2014)
Degree Days  
Heating Degree Days 19 27  
Month to date heating degree days 464  
Since 1 July heating degree days 994  
Cooling Degree Days 0 0  
Month to date cooling degree days 0  
Year to date cooling degree days 713  
Moisture  
Dew Point 40 °F    
Average Humidity 92    
Maximum Humidity 100    
Minimum Humidity 59    
Precipitation  
Precipitation 0.00 in 0.09 in 0.44 in (2007)
Month to date precipitation 2.42  
Year to date precipitation 34.42  
Sea Level Pressure  
Sea Level Pressure 30.20 in    
Wind  
Wind Speed 2 mph (South)    
Max Wind Speed 7 mph    
Max Gust Speed -    
Visibility 3 miles    
Events Fog    
T = Trace of Precipitation, MM = Missing Value Source: NWS Daily Summary

Daily Weather History Graph

Daily Weather History Graph

Search for Another Location

Airport:

Trip Planner

Search our weather history database for the weather conditions in past years. The results will help you decide how hot, cold, wet, or windy it might be!

Date:

Astronomy

Nov. 21, 2012 Rise Set
Actual Time 6:43 AM CST 4:25 PM CST
Civil Twilight 6:13 AM CST 4:55 PM CST
Nautical Twilight 5:40 AM CST 5:29 PM CST
Astronomical Twilight 5:07 AM CST 6:01 PM CST
Moon 12:44 PM CST (11/21) No Moon Set
Length of Visible Light 10h 41m
Length of Day
9h 41m
First Quarter, 62% of the Moon is Illuminated
Nov 21
First Quarter
Nov 28
Full
Dec 6
Last Quarter
Dec 13
New
Dec 19
First Quarter

Hourly Weather History & Observations

Time (CST) Temp. Windchill Dew Point Humidity Pressure Visibility Wind Dir Wind Speed Gust Speed Precip Events Conditions
12:15 AM 35.6 °F - 35.6 °F 100% 30.18 in 0.2 mi Calm Calm - N/A Fog Fog
12:35 AM 35.6 °F - 35.6 °F 100% 30.18 in 0.2 mi Calm Calm - N/A Fog Fog
12:55 AM 35.6 °F - 35.6 °F 100% 30.18 in 0.2 mi Calm Calm - N/A Fog Fog
1:15 AM 35.6 °F - 35.6 °F 100% 30.19 in 0.2 mi Calm Calm - N/A Fog Fog
1:35 AM 33.8 °F - 33.8 °F 100% 30.19 in 0.2 mi Calm Calm - N/A Fog Fog
1:55 AM 33.8 °F - 33.8 °F 100% 30.19 in 0.2 mi Calm Calm - N/A Fog Fog
2:15 AM 33.8 °F - 33.8 °F 100% 30.20 in 0.2 mi Calm Calm - N/A Fog Fog
2:35 AM 33.8 °F - 33.8 °F 100% 30.19 in 0.2 mi Calm Calm - N/A Fog Fog
2:55 AM 33.8 °F - 33.8 °F 100% 30.20 in 0.2 mi Calm Calm - N/A Fog Fog
3:15 AM 33.8 °F - 33.8 °F 100% 30.20 in 0.2 mi Calm Calm - N/A Fog Fog
3:35 AM 33.8 °F - 33.8 °F 100% 30.21 in 0.2 mi Calm Calm - N/A Fog Fog
3:55 AM 33.8 °F - 33.8 °F 100% 30.20 in 0.2 mi Calm Calm - N/A Fog Fog
4:15 AM 33.8 °F - 33.8 °F 100% 30.20 in 0.2 mi Calm Calm - N/A Fog Fog
4:35 AM 35.6 °F - 35.6 °F 100% 30.20 in 0.2 mi Calm Calm - N/A Fog Fog
4:55 AM 33.8 °F - 33.8 °F 100% 30.21 in 0.2 mi Calm Calm - N/A Fog Fog
5:15 AM 33.8 °F - 33.8 °F 100% 30.21 in 0.2 mi Calm Calm - N/A Fog Fog
5:35 AM 33.8 °F - 33.8 °F 100% 30.22 in 0.2 mi Calm Calm - N/A Fog Fog
5:55 AM 33.8 °F - 33.8 °F 100% 30.22 in 0.2 mi Calm Calm - N/A Fog Fog
6:15 AM 33.8 °F - 33.8 °F 100% 30.22 in 0.2 mi Calm Calm - N/A Fog Fog
6:35 AM 33.8 °F - 33.8 °F 100% 30.23 in 0.2 mi Calm Calm - N/A Fog Fog
6:55 AM 33.8 °F - 33.8 °F 100% 30.24 in 0.2 mi Calm Calm - N/A Fog Fog
7:15 AM 33.8 °F - 33.8 °F 100% 30.24 in 0.2 mi Calm Calm - N/A Fog Fog
7:35 AM 33.8 °F - 33.8 °F 100% 30.24 in 0.2 mi Calm Calm - N/A Fog Fog
7:55 AM 33.8 °F - 33.8 °F 100% 30.24 in 0.2 mi Calm Calm - N/A Fog Fog
8:15 AM 33.8 °F - 33.8 °F 100% 30.26 in 0.2 mi Calm Calm - N/A Fog Fog
8:35 AM 35.6 °F - 35.6 °F 100% 30.26 in 0.2 mi Calm Calm - N/A Fog Fog
8:55 AM 35.6 °F - 35.6 °F 100% 30.26 in 0.2 mi Calm Calm - N/A Fog Fog
9:15 AM 37.4 °F - 37.4 °F 100% 30.26 in 0.2 mi Calm Calm - N/A Fog Fog
9:35 AM 37.4 °F - 37.4 °F 100% 30.27 in 0.2 mi Calm Calm - N/A Fog Fog
9:55 AM 41.0 °F - 41.0 °F 100% 30.27 in 0.2 mi Calm Calm - N/A Fog Fog
10:15 AM 41.0 °F 39.0 °F 41.0 °F 100% 30.27 in 0.2 mi SE 3.5 mph - N/A Fog Fog
10:35 AM 42.8 °F - 42.8 °F 100% 30.27 in 0.2 mi Calm Calm - N/A Fog Fog
10:55 AM 42.8 °F - 42.8 °F 100% 30.26 in 0.5 mi Calm Calm - N/A Fog Fog
11:15 AM 44.6 °F - 44.6 °F 100% 30.25 in 1.8 mi Calm Calm - N/A   Overcast
11:35 AM 46.4 °F - 46.4 °F 100% 30.24 in 4.0 mi Calm Calm - N/A   Scattered Clouds
11:55 AM 48.2 °F - 48.2 °F 100% 30.23 in 5.0 mi SSE 3.5 mph - N/A   Clear
12:15 PM 51.8 °F - 50.0 °F 94% 30.22 in 5.0 mi SSE 5.8 mph - N/A   Clear
12:35 PM 53.6 °F - 51.8 °F 94% 30.21 in 5.0 mi SSE 6.9 mph - N/A   Clear
12:55 PM 55.4 °F - 53.6 °F 94% 30.21 in 7.0 mi SSW 6.9 mph - N/A   Clear
1:15 PM 59.0 °F - 50.0 °F 72% 30.20 in 7.0 mi SW 6.9 mph - N/A   Clear
1:55 PM 59.0 °F - 46.4 °F 63% 30.19 in 7.0 mi SW 4.6 mph - N/A   Clear
2:15 PM 59.0 °F - 46.4 °F 63% 30.19 in 7.0 mi SW 6.9 mph - N/A   Clear
2:35 PM 59.0 °F - 46.4 °F 63% 30.19 in 7.0 mi SW 6.9 mph - N/A   Clear
2:55 PM 59.0 °F - 44.6 °F 59% 30.18 in 7.0 mi SSW 6.9 mph - N/A   Clear
3:15 PM 59.0 °F - 46.4 °F 63% 30.18 in 7.0 mi SSW 3.5 mph - N/A   Clear
3:35 PM 57.2 °F - 46.4 °F 67% 30.17 in 7.0 mi South 6.9 mph - N/A   Scattered Clouds
3:55 PM 55.4 °F - 46.4 °F 72% 30.17 in 7.0 mi South 6.9 mph - N/A   Clear
4:15 PM 53.6 °F - 44.6 °F 72% 30.17 in 7.0 mi South 4.6 mph - N/A   Clear
4:35 PM 51.8 °F - 44.6 °F 76% 30.17 in 7.0 mi South 5.8 mph - N/A   Scattered Clouds
4:55 PM 50.0 °F - 44.6 °F 82% 30.17 in 7.0 mi South 5.8 mph - N/A   Clear
5:15 PM 48.2 °F - 42.8 °F 82% 30.17 in 7.0 mi South 5.8 mph - N/A   Scattered Clouds
5:35 PM 50.0 °F - 44.6 °F 82% 30.17 in 7.0 mi SSE 6.9 mph - N/A   Scattered Clouds
5:55 PM 50.0 °F - 44.6 °F 82% 30.17 in 5.0 mi South 6.9 mph - N/A   Haze
6:15 PM 48.2 °F - 44.6 °F 87% 30.17 in 5.0 mi SSE 4.6 mph - N/A   Clear
6:35 PM 48.2 °F - 44.6 °F 87% 30.17 in 5.0 mi South 5.8 mph - N/A   Clear
6:55 PM 46.4 °F 43.5 °F 42.8 °F 87% 30.17 in 5.0 mi South 5.8 mph - N/A   Clear
7:15 PM 46.4 °F 43.5 °F 42.8 °F 87% 30.17 in 5.0 mi South 5.8 mph - N/A   Clear
7:35 PM 44.6 °F 43.1 °F 42.8 °F 93% 30.17 in 4.0 mi SSE 3.5 mph - N/A   Clear
7:55 PM 44.6 °F 43.1 °F 42.8 °F 93% 30.17 in 4.0 mi SSE 3.5 mph - N/A   Clear
8:15 PM 42.8 °F 41.1 °F 42.8 °F 100% 30.17 in 4.0 mi South 3.5 mph - N/A   Clear
8:35 PM 42.8 °F 39.3 °F 41.0 °F 93% 30.17 in 3.0 mi South 5.8 mph - N/A   Clear
8:55 PM 42.8 °F 38.6 °F 41.0 °F 93% 30.16 in 4.0 mi South 6.9 mph - N/A   Clear
9:15 PM 44.6 °F 42.2 °F 41.0 °F 87% 30.17 in 4.0 mi South 4.6 mph - N/A   Clear
9:35 PM 41.0 °F 38.0 °F 39.2 °F 93% 30.16 in 3.0 mi South 4.6 mph - N/A   Clear
9:55 PM 41.0 °F 37.1 °F 39.2 °F 93% 30.16 in 3.0 mi SSW 5.8 mph - N/A   Clear
10:15 PM 41.0 °F 37.1 °F 39.2 °F 93% 30.16 in 4.0 mi South 5.8 mph - N/A   Clear
10:35 PM 41.0 °F 37.1 °F 39.2 °F 93% 30.16 in 3.0 mi South 5.8 mph - N/A   Clear
10:55 PM 41.0 °F 37.1 °F 39.2 °F 93% 30.16 in 3.0 mi South 5.8 mph - N/A   Clear
11:15 PM 41.0 °F 38.0 °F 39.2 °F 93% 30.16 in 3.0 mi South 4.6 mph - N/A   Clear
11:35 PM 39.2 °F 35.0 °F 37.4 °F 93% 30.15 in 2.5 mi South 5.8 mph - N/A   Clear
11:55 PM 39.2 °F 35.9 °F 37.4 °F 93% 30.15 in 2.5 mi South 4.6 mph - N/A   Clear